TimeHST,TemperatureF,Dew PointF,Humidity,Sea Level PressureIn,VisibilityMPH,Wind Direction,Wind SpeedMPH,Gust SpeedMPH,PrecipitationIn,Events,Conditions,WindDirDegrees,DateUTC
12:53 AM,64.9,59.0,81,30.17,10.0,Calm,Calm,-,N/A,,Clear,0,2013-03-06 10:53:00
1:53 AM,66.9,59.0,76,30.15,10.0,Calm,Calm,-,N/A,,Overcast,0,2013-03-06 11:53:00
2:53 AM,66.0,60.1,81,30.13,10.0,Calm,Calm,-,N/A,,Scattered Clouds,0,2013-03-06 12:53:00
3:53 AM,64.9,59.0,81,30.11,10.0,ENE,3.5,-,N/A,,Partly Cloudy,70,2013-03-06 13:53:00
4:53 AM,64.0,59.0,84,30.11,10.0,Calm,Calm,-,N/A,,Clear,0,2013-03-06 14:53:00
5:53 AM,64.0,59.0,84,30.12,10.0,Calm,Calm,-,N/A,,Clear,0,2013-03-06 15:53:00
6:53 AM,64.0,59.0,84,30.13,10.0,Calm,Calm,-,N/A,,Clear,0,2013-03-06 16:53:00
7:53 AM,69.1,61.0,75,30.15,10.0,Variable,3.5,-,N/A,,Clear,0,2013-03-06 17:53:00
8:53 AM,75.0,60.1,60,30.16,10.0,East,8.1,-,N/A,,Clear,80,2013-03-06 18:53:00
9:53 AM,-9999,-9999,N/A,30.19,-9999.0,North,-9999.0,-,N/A,,Unknown,0,2013-03-06 19:53:00
10:53 AM,-9999,-9999,N/A,30.19,-9999.0,North,-9999.0,-,N/A,,Unknown,0,2013-03-06 20:53:00
11:53 AM,79.0,63.0,58,30.16,-9999.0,North,-9999.0,-,N/A,,Unknown,0,2013-03-06 21:53:00
12:53 PM,-9999,-9999,N/A,30.14,-9999.0,North,-9999.0,-,N/A,,Unknown,0,2013-03-06 22:53:00
1:53 PM,79.0,63.0,58,30.11,-9999.0,SE,12.7,20.7,N/A,,Unknown,130,2013-03-06 23:53:00
2:53 PM,78.1,62.1,58,30.10,10.0,ESE,10.4,20.7,N/A,,Clear,120,2013-03-07 00:53:00
3:53 PM,78.1,63.0,60,30.09,10.0,SE,12.7,19.6,N/A,,Clear,130,2013-03-07 01:53:00
4:53 PM,77.0,63.0,62,30.09,10.0,SE,11.5,-,N/A,,Mostly Cloudy,130,2013-03-07 02:53:00
5:53 PM,75.9,60.1,58,30.10,10.0,Calm,Calm,-,N/A,,Mostly Cloudy,0,2013-03-07 03:53:00
6:53 PM,72.0,60.1,66,30.11,10.0,Calm,Calm,-,N/A,,Clear,0,2013-03-07 04:53:00
7:53 PM,70.0,61.0,73,30.12,10.0,ENE,3.5,-,N/A,,Clear,70,2013-03-07 05:53:00
8:53 PM,68.0,60.1,76,30.15,10.0,ENE,3.5,-,N/A,,Clear,60,2013-03-07 06:53:00
9:53 PM,68.0,60.1,76,30.16,10.0,Calm,Calm,-,N/A,,Clear,0,2013-03-07 07:53:00
10:53 PM,66.9,59.0,76,30.16,10.0,Calm,Calm,-,N/A,,Clear,0,2013-03-07 08:53:00
11:53 PM,64.9,59.0,81,30.15,10.0,Calm,Calm,-,N/A,,Clear,0,2013-03-07 09:53:00